DW2149 Weather Reports


time (UTC)temp
C
wind
direction
speed
KPH
gust
KPH
rain 1hr
cm
rain 24hr
cm
rain mn
cm
humidity
%
barometer
mb
20260509171710 19 172 0.0 3.2 0.00 0.00 0.00 62 1012.6
20260509171506 18 161 0.0 3.2 0.00 0.00 0.00 64 1012.7
20260509171118 18 161 0.0 6.4 0.00 0.00 0.00 64 1012.6
20260509170914 18 160 0.0 6.4 0.00 0.00 0.00 65 1012.6
20260509170525 17 196 0.0 6.4 0.00 0.00 0.00 69 1012.6
20260509170313 17 196 0.0 6.4 0.00 0.00 0.00 71 1012.7
20260509170105 17 197 0.0 6.4 0.00 0.00 0.00 75 1012.6
20260509165853 16 196 0.0 6.4 0.00 0.00 0.00 77 1012.6
20260509165642 16 196 0.0 6.4 0.00 0.00 0.00 81 1012.6
20260509165434 16 250 0.0 6.4 0.00 0.00 0.00 83 1012.6
20260509165226 16 292 0.0 6.4 0.00 0.00 0.00 86 1012.6
20260509165015 16 292 0.0 6.4 0.00 0.00 0.00 86 1012.6
20260509164810 16 251 0.0 1.6 0.00 0.00 0.00 88 1012.6
20260509164606 16 252 0.0 0.0 0.00 0.00 0.00 88 1012.6
20260509164403 15 252 0.0 4.8 0.00 0.00 0.00 89 1012.6
20260509164151 15 252 0.0 4.8 0.00 0.00 0.00 89 1012.6
20260509163940 15 273 0.0 4.8 0.00 0.00 0.00 89 1012.7
20260509163734 15 275 0.0 0.0 0.00 0.00 0.00 90 1012.7
20260509163530 15 275 0.0 0.0 0.00 0.00 0.00 90 1012.7
20260509163143 15 275 0.0 0.0 0.00 0.00 0.00 90 1012.8
20260509162937 15 275 0.0 0.0 0.00 0.00 0.00 91 1012.7
20260509162732 15 275 0.0 0.0 0.00 0.00 0.00 91 1012.8
20260509162528 15 275 0.0 0.0 0.00 0.00 0.00 91 1012.7
20260509162326 15 275 0.0 0.0 0.00 0.00 0.00 91 1012.7
20260509162121 14 275 0.0 0.0 0.00 0.00 0.00 91 1012.7
20260509161915 14 275 0.0 0.0 0.00 0.00 0.00 91 1012.8
20260509161705 14 275 0.0 0.0 0.00 0.00 0.00 91 1012.8
20260509161500 14 275 0.0 0.0 0.00 0.00 0.00 91 1012.8
20260509161107 13 275 0.0 0.0 0.00 0.00 0.00 91 1012.7
20260509160858 13 275 0.0 0.0 0.00 0.00 0.00 91 1012.7
20260509160651 13 275 0.0 0.0 0.00 0.00 0.00 91 1012.7
20260509160441 13 275 0.0 0.0 0.00 0.00 0.00 91 1012.7
20260509160237 13 275 0.0 0.0 0.00 0.00 0.00 91 1012.7
20260509160030 13 275 0.0 0.0 0.00 0.00 0.00 91 1012.7
20260509155819 13 275 0.0 0.0 0.00 0.00 0.00 91 1012.7
20260509155424 12 275 0.0 0.0 0.00 0.00 0.00 90 1012.7
20260509155217 12 275 0.0 0.0 0.00 0.00 0.00 90 1012.8
20260509155008 12 275 0.0 0.0 0.00 0.00 0.00 90 1012.7
20260509154759 12 275 0.0 0.0 0.00 0.00 0.00 90 1012.8
20260509154552 12 275 0.0 0.0 0.00 0.00 0.00 90 1012.8
20260509154340 12 275 0.0 0.0 0.00 0.00 0.00 90 1012.9
20260509154129 12 275 0.0 0.0 0.00 0.00 0.00 90 1012.9
20260509153925 12 275 0.0 0.0 0.00 0.00 0.00 90 1012.9
20260509153713 12 275 0.0 0.0 0.00 0.00 0.00 90 1013.0
20260509153510 11 275 0.0 0.0 0.00 0.00 0.00 89 1012.9
20260509153118 11 275 0.0 0.0 0.00 0.00 0.00 89 1013.0
20260509152912 11 275 0.0 0.0 0.00 0.00 0.00 89 1013.0
20260509152525 11 275 0.0 0.0 0.00 0.00 0.00 89 1012.9
20260509152128 11 275 0.0 0.0 0.00 0.00 0.00 89 1012.9
20260509151919 11 275 0.0 0.0 0.00 0.00 0.00 88 1012.8
20260509151715 11 275 0.0 0.0 0.00 0.00 0.00 88 1012.8
20260509151503 10 275 0.0 0.0 0.00 0.00 0.00 88 1012.9
20260509151254 10 275 0.0 0.0 0.00 0.00 0.00 88 1012.9
20260509151045 10 275 0.0 0.0 0.00 0.00 0.00 88 1012.8
20260509150844 10 275 0.0 0.0 0.00 0.00 0.00 88 1012.8
20260509150633 10 275 0.0 0.0 0.00 0.00 0.00 88 1012.9
20260509150425 10 275 0.0 0.0 0.00 0.00 0.00 88 1013.0
20260509150218 10 275 0.0 0.0 0.00 0.00 0.00 88 1013.0
20260509150007 10 275 0.0 0.0 0.00 0.00 0.00 87 1013.0
20260509145616 10 275 0.0 0.0 0.00 0.00 0.00 87 1013.0
20260509145413 10 275 0.0 0.0 0.00 0.00 0.00 87 1013.0
20260509145207 10 275 0.0 0.0 0.00 0.00 0.00 87 1012.9
20260509144419 10 275 0.0 0.0 0.00 0.00 0.00 87 1012.8
20260509144216 10 275 0.0 0.0 0.00 0.00 0.00 87 1012.8
20260509144014 10 275 0.0 0.0 0.00 0.00 0.00 87 1012.9
20260509143803 10 275 0.0 0.0 0.00 0.00 0.00 87 1012.8
20260509143601 10 275 0.0 0.0 0.00 0.00 0.00 87 1012.9
20260509143210 10 275 0.0 0.0 0.00 0.00 0.00 87 1012.9
20260509143007 10 275 0.0 0.0 0.00 0.00 0.00 87 1012.9
20260509142801 10 275 0.0 0.0 0.00 0.00 0.00 87 1012.9
20260509142550 10 275 0.0 0.0 0.00 0.00 0.00 87 1012.9
20260509142347 10 275 0.0 0.0 0.00 0.00 0.00 87 1013.0
20260509142139 10 275 0.0 0.0 0.00 0.00 0.00 87 1013.0
20260509141935 10 275 0.0 0.0 0.00 0.00 0.00 87 1013.0
20260509141725 10 275 0.0 0.0 0.00 0.00 0.00 87 1013.1
20260509141521 10 275 0.0 0.0 0.00 0.00 0.00 87 1013.0
20260509141312 10 275 0.0 0.0 0.00 0.00 0.00 87 1013.0
20260509141100 10 275 0.0 0.0 0.00 0.00 0.00 87 1013.1
20260509140712 10 275 0.0 0.0 0.00 0.00 0.00 86 1013.1
20260509140459 10 275 0.0 0.0 0.00 0.00 0.00 86 1013.1
20260509140256 10 275 0.0 0.0 0.00 0.00 0.00 86 1013.1
20260509140051 10 275 0.0 0.0 0.00 0.00 0.00 86 1013.1
20260509135848 10 275 0.0 0.0 0.00 0.00 0.00 86 1013.1
20260509135309 10 275 0.0 0.0 0.00 0.00 0.00 86 1013.1
20260509135100 10 275 0.0 0.0 0.00 0.00 0.00 86 1013.1
20260509134849 9 275 0.0 0.0 0.00 0.00 0.00 86 1013.0
20260509134643 9 275 0.0 0.0 0.00 0.00 0.00 86 1013.0
20260509134439 9 275 0.0 0.0 0.00 0.00 0.00 86 1013.0
20260509134231 9 275 0.0 0.0 0.00 0.00 0.00 86 1013.0
20260509134022 10 275 0.0 0.0 0.00 0.00 0.00 86 1013.0
20260509133816 9 275 0.0 0.0 0.00 0.00 0.00 86 1013.0
20260509133607 9 275 0.0 0.0 0.00 0.00 0.00 86 1012.9
20260509133211 9 275 0.0 0.0 0.00 0.00 0.00 86 1012.9
20260509133006 10 275 0.0 0.0 0.00 0.00 0.00 86 1012.8
20260509132758 9 275 0.0 0.0 0.00 0.00 0.00 86 1012.8
20260509132546 10 275 0.0 0.0 0.00 0.00 0.00 86 1012.8
20260509132344 10 275 0.0 0.0 0.00 0.00 0.00 86 1012.8
20260509131737 10 275 0.0 0.0 0.00 0.00 0.00 86 1012.8
20260509131526 10 275 0.0 0.0 0.00 0.00 0.00 86 1012.8
20260509131317 10 275 0.0 0.0 0.00 0.00 0.00 85 1012.8
20260509131111 10 275 0.0 0.0 0.00 0.00 0.00 85 1012.7
20260509130721 10 275 0.0 0.0 0.00 0.00 0.00 85 1012.6
20260509130511 10 275 0.0 0.0 0.00 0.00 0.00 85 1012.6
20260509130307 10 275 0.0 0.0 0.00 0.00 0.00 85 1012.5
20260509125911 10 275 0.0 0.0 0.00 0.00 0.00 85 1012.5
20260509125706 10 275 0.0 0.0 0.00 0.00 0.00 85 1012.5
20260509125315 10 275 0.0 0.0 0.00 0.00 0.00 85 1012.5
20260509124743 10 275 0.0 0.0 0.00 0.00 0.00 85 1012.6
20260509124532 10 275 0.0 0.0 0.00 0.00 0.00 85 1012.5
20260509124329 10 275 0.0 0.0 0.00 0.00 0.00 85 1012.6
20260509124123 10 275 0.0 0.0 0.00 0.00 0.00 85 1012.6
20260509123915 10 275 0.0 0.0 0.00 0.00 0.00 85 1012.6
20260509123526 10 275 0.0 0.0 0.00 0.00 0.00 85 1012.6
20260509123319 10 275 0.0 0.0 0.00 0.00 0.00 85 1012.6
20260509123109 10 275 0.0 0.0 0.00 0.00 0.00 85 1012.5
20260509122713 10 275 0.0 0.0 0.00 0.00 0.00 85 1012.5
20260509122502 10 275 0.0 0.0 0.00 0.00 0.00 85 1012.5
20260509122256 10 275 0.0 0.0 0.00 0.00 0.00 85 1012.5
20260509121903 10 275 0.0 0.0 0.00 0.00 0.00 85 1012.5
20260509121701 10 275 0.0 0.0 0.00 0.00 0.00 85 1012.5
20260509121454 10 275 0.0 0.0 0.00 0.00 0.00 85 1012.5
20260509121241 10 275 0.0 0.0 0.00 0.00 0.00 85 1012.5
20260509121031 10 275 0.0 0.0 0.00 0.00 0.00 85 1012.5
20260509120819 10 275 0.0 0.0 0.00 0.00 0.00 85 1012.5
20260509120611 10 275 0.0 0.0 0.00 0.00 0.00 85 1012.6
20260509120401 10 275 0.0 0.0 0.00 0.00 0.00 85 1012.5
20260509120159 10 275 0.0 0.0 0.00 0.00 0.00 85 1012.5
20260509115951 10 275 0.0 0.0 0.00 0.00 0.00 85 1012.5
20260509115747 10 275 0.0 0.0 0.00 0.00 0.00 85 1012.5
20260509115545 10 275 0.0 0.0 0.00 0.00 0.00 85 1012.5
20260509115339 10 275 0.0 0.0 0.00 0.00 0.00 85 1012.5
20260509115137 10 275 0.0 0.0 0.00 0.00 0.00 85 1012.6
20260509114932 10 275 0.0 0.0 0.00 0.00 0.00 85 1012.6
20260509114723 10 275 0.0 0.0 0.00 0.00 0.00 85 1012.6
20260509114521 10 275 0.0 0.0 0.00 0.00 0.00 84 1012.6
20260509114310 10 275 0.0 0.0 0.00 0.00 0.00 84 1012.5
20260509114105 10 275 0.0 0.0 0.00 0.00 0.00 84 1012.6
20260509113904 10 275 0.0 0.0 0.00 0.00 0.00 84 1012.6
20260509113658 10 275 0.0 0.0 0.00 0.00 0.00 84 1012.6
20260509113456 10 275 0.0 0.0 0.00 0.00 0.00 84 1012.6
20260509113247 10 275 0.0 0.0 0.00 0.00 0.00 85 1012.6
20260509113036 10 275 0.0 0.0 0.00 0.00 0.00 85 1012.6
20260509112824 10 275 0.0 0.0 0.00 0.00 0.00 85 1012.7
20260509112436 10 275 0.0 0.0 0.00 0.00 0.00 84 1012.7
20260509112233 10 275 0.0 0.0 0.00 0.00 0.00 84 1012.6
20260509112031 10 275 0.0 0.0 0.00 0.00 0.00 84 1012.7
20260509111820 10 275 0.0 0.0 0.00 0.00 0.00 84 1012.7
20260509111613 10 275 0.0 0.0 0.00 0.00 0.00 84 1012.7
20260509111402 10 275 0.0 0.0 0.00 0.00 0.00 84 1012.8
20260509111158 10 275 0.0 0.0 0.00 0.00 0.00 84 1012.8
20260509110949 10 275 0.0 0.0 0.00 0.00 0.00 84 1012.8
20260509110600 10 275 0.0 0.0 0.00 0.00 0.00 84 1012.8
20260509110355 10 275 0.0 0.0 0.00 0.00 0.00 84 1012.9
20260509110143 10 275 0.0 0.0 0.00 0.00 0.00 84 1012.8
20260509105935 10 275 0.0 0.0 0.00 0.00 0.00 84 1012.8
20260509105726 10 275 0.0 0.0 0.00 0.00 0.00 84 1012.8
20260509105519 10 275 0.0 0.0 0.00 0.00 0.00 84 1012.9
20260509105315 10 275 0.0 0.0 0.00 0.00 0.00 84 1012.9
20260509105108 10 275 0.0 0.0 0.00 0.00 0.00 84 1012.9
20260509104855 10 275 0.0 0.0 0.00 0.00 0.00 84 1012.8
20260509104643 10 275 0.0 0.0 0.00 0.00 0.00 84 1012.8
20260509104430 10 275 0.0 0.0 0.00 0.00 0.00 84 1012.8
20260509104221 10 275 0.0 0.0 0.00 0.00 0.00 84 1012.8
20260509104012 10 275 0.0 0.0 0.00 0.00 0.00 84 1012.8
20260509103805 10 275 0.0 0.0 0.00 0.00 0.00 84 1012.8
20260509103412 10 275 0.0 0.0 0.00 0.00 0.00 84 1012.8
20260509103159 10 275 0.0 0.0 0.00 0.00 0.00 84 1012.8
20260509102956 10 275 0.0 0.0 0.00 0.00 0.00 84 1012.8
20260509102745 10 275 0.0 0.0 0.00 0.00 0.00 84 1012.8
20260509102532 10 275 0.0 0.0 0.00 0.00 0.00 84 1012.8
20260509102325 10 275 0.0 0.0 0.00 0.00 0.00 84 1012.8
20260509102117 10 275 0.0 0.0 0.00 0.00 0.00 84 1012.8
20260509101912 10 275 0.0 0.0 0.00 0.00 0.00 83 1012.9
20260509101517 10 275 0.0 0.0 0.00 0.00 0.00 83 1013.0
20260509101311 10 275 0.0 0.0 0.00 0.00 0.00 83 1013.0
20260509101109 10 275 0.0 0.0 0.00 0.00 0.00 83 1013.0
20260509100902 10 275 0.0 0.0 0.00 0.00 0.00 83 1013.0
20260509100701 10 275 0.0 0.0 0.00 0.00 0.00 83 1013.0
20260509100305 10 275 0.0 0.0 0.00 0.00 0.00 83 1013.0
20260509100053 10 275 0.0 0.0 0.00 0.00 0.00 83 1013.0
20260509095851 10 275 0.0 0.0 0.00 0.00 0.00 83 1013.0
20260509095454 10 275 0.0 0.0 0.00 0.00 0.00 83 1013.0
20260509095249 10 275 0.0 0.0 0.00 0.00 0.00 83 1013.0
20260509095037 10 275 0.0 0.0 0.00 0.00 0.00 83 1012.9
20260509094829 10 275 0.0 0.0 0.00 0.00 0.00 83 1013.0
20260509094624 10 275 0.0 0.0 0.00 0.00 0.00 83 1013.0
20260509094417 10 275 0.0 0.0 0.00 0.00 0.00 83 1013.0
20260509094213 10 275 0.0 0.0 0.00 0.00 0.00 83 1013.0
20260509094002 10 275 0.0 0.0 0.00 0.00 0.00 83 1013.0
20260509093755 10 275 0.0 0.0 0.00 0.00 0.00 83 1013.0
20260509093548 10 275 0.0 0.0 0.00 0.00 0.00 83 1013.1
20260509093341 10 275 0.0 0.0 0.00 0.00 0.00 83 1013.0
20260509093137 10 275 0.0 0.0 0.00 0.00 0.00 83 1013.1
20260509092929 10 275 0.0 0.0 0.00 0.00 0.00 83 1013.0
20260509092542 10 275 0.0 0.0 0.00 0.00 0.00 82 1013.1
20260509092337 10 275 0.0 0.0 0.00 0.00 0.00 82 1013.1
20260509092124 11 275 0.0 0.0 0.00 0.00 0.00 82 1013.1
20260509091919 10 275 0.0 0.0 0.00 0.00 0.00 82 1013.1
20260509091532 11 275 0.0 0.0 0.00 0.00 0.00 82 1013.1
20260509091135 11 275 0.0 0.0 0.00 0.00 0.00 82 1013.0
20260509090930 11 275 0.0 0.0 0.00 0.00 0.00 82 1013.0
20260509090727 11 275 0.0 0.0 0.00 0.00 0.00 82 1013.0
20260509090525 11 275 0.0 0.0 0.00 0.00 0.00 82 1013.0
20260509090315 11 275 0.0 0.0 0.00 0.00 0.00 82 1013.0
20260509090113 11 275 0.0 0.0 0.00 0.00 0.00 82 1013.0
20260509085903 11 275 0.0 0.0 0.00 0.00 0.00 82 1013.0
20260509085657 11 275 0.0 0.0 0.00 0.00 0.00 82 1013.0
20260509085454 11 275 0.0 0.0 0.00 0.00 0.00 82 1013.0
20260509085241 11 275 0.0 0.0 0.00 0.00 0.00 82 1012.9
20260509085032 11 275 0.0 0.0 0.00 0.00 0.00 82 1013.0
20260509084823 11 275 0.0 0.0 0.00 0.00 0.00 82 1013.0
20260509084612 11 275 0.0 0.0 0.00 0.00 0.00 82 1013.0
20260509084407 11 275 0.0 0.0 0.00 0.00 0.00 81 1013.0
20260509084158 11 275 0.0 0.0 0.00 0.00 0.00 81 1013.0
20260509083955 11 275 0.0 0.0 0.00 0.00 0.00 81 1013.0
20260509083744 11 275 0.0 0.0 0.00 0.00 0.00 81 1013.0
20260509083533 11 275 0.0 0.0 0.00 0.00 0.00 81 1013.0
20260509083328 11 275 0.0 0.0 0.00 0.00 0.00 81 1013.0
20260509083124 11 275 0.0 0.0 0.00 0.00 0.00 81 1013.1
20260509082914 11 275 0.0 0.0 0.00 0.00 0.00 81 1013.1
20260509082703 11 275 0.0 0.0 0.00 0.00 0.00 81 1013.1
20260509082450 11 275 0.0 0.0 0.00 0.00 0.00 81 1013.1
20260509082248 11 275 0.0 0.0 0.00 0.00 0.00 81 1013.2
20260509082036 11 275 0.0 0.0 0.00 0.00 0.00 81 1013.1
20260509081823 11 275 0.0 0.0 0.00 0.00 0.00 81 1013.2
20260509081431 11 275 0.0 0.0 0.00 0.00 0.00 81 1013.2
20260509081039 11 275 0.0 0.0 0.00 0.00 0.00 81 1013.2
20260509080643 11 275 0.0 0.0 0.00 0.00 0.00 81 1013.2
20260509080253 11 275 0.0 0.0 0.00 0.00 0.00 81 1013.3
20260509080041 11 275 0.0 0.0 0.00 0.00 0.00 80 1013.3
20260509075839 11 275 0.0 0.0 0.00 0.00 0.00 81 1013.3
20260509075630 11 275 0.0 0.0 0.00 0.00 0.00 81 1013.3
20260509075235 11 275 0.0 0.0 0.00 0.00 0.00 80 1013.3
20260509075031 11 275 0.0 0.0 0.00 0.00 0.00 80 1013.4
20260509074634 11 275 0.0 0.0 0.00 0.00 0.00 80 1013.4
20260509074424 11 275 0.0 0.0 0.00 0.00 0.00 80 1013.4
20260509074034 11 275 0.0 0.0 0.00 0.00 0.00 80 1013.4
20260509073825 11 275 0.0 0.0 0.00 0.00 0.00 80 1013.4
20260509073620 11 275 0.0 0.0 0.00 0.00 0.00 80 1013.4
20260509073415 11 275 0.0 0.0 0.00 0.00 0.00 80 1013.4
20260509073211 11 275 0.0 0.0 0.00 0.00 0.00 79 1013.4
20260509073009 11 275 0.0 0.0 0.00 0.00 0.00 79 1013.4
20260509072757 11 275 0.0 0.0 0.00 0.00 0.00 80 1013.4
20260509072404 11 275 0.0 0.0 0.00 0.00 0.00 79 1013.4
20260509072201 11 275 0.0 0.0 0.00 0.00 0.00 79 1013.3
20260509071956 11 275 0.0 0.0 0.00 0.00 0.00 79 1013.3
20260509071749 11 275 0.0 0.0 0.00 0.00 0.00 79 1013.4
20260509071358 11 275 0.0 0.0 0.00 0.00 0.00 79 1013.2
20260509071153 11 275 0.0 0.0 0.00 0.00 0.00 79 1013.3
20260509070942 11 275 0.0 0.0 0.00 0.00 0.00 79 1013.3
20260509070730 11 275 0.0 0.0 0.00 0.00 0.00 79 1013.3
20260509070526 12 275 0.0 0.0 0.00 0.00 0.00 79 1013.3
20260509070322 12 275 0.0 0.0 0.00 0.00 0.00 79 1013.3
20260509070116 12 275 0.0 0.0 0.00 0.00 0.00 79 1013.3
20260509065911 12 275 0.0 0.0 0.00 0.00 0.00 79 1013.4
20260509065336 12 275 0.0 0.0 0.00 0.00 0.00 79 1013.5
20260509065129 12 275 0.0 0.0 0.00 0.00 0.00 79 1013.5
20260509064926 12 275 0.0 0.0 0.00 0.00 0.00 79 1013.4
20260509064716 12 275 0.0 0.0 0.00 0.00 0.00 79 1013.5
20260509064507 12 275 0.0 0.0 0.00 0.00 0.00 78 1013.4
20260509064301 12 275 0.0 0.0 0.00 0.00 0.00 78 1013.5
20260509063905 12 275 0.0 0.0 0.00 0.00 0.00 78 1013.5
20260509063655 12 275 0.0 0.0 0.00 0.00 0.00 78 1013.4
20260509063442 12 275 0.0 0.0 0.00 0.00 0.00 78 1013.4
20260509063234 12 275 0.0 0.0 0.00 0.00 0.00 78 1013.5
20260509063024 12 275 0.0 0.0 0.00 0.00 0.00 78 1013.4
20260509062815 12 275 0.0 0.0 0.00 0.00 0.00 78 1013.4
20260509062613 12 275 0.0 0.0 0.00 0.00 0.00 77 1013.4
20260509062406 12 275 0.0 0.0 0.00 0.00 0.00 77 1013.4
20260509062202 12 275 0.0 0.0 0.00 0.00 0.00 77 1013.4
20260509062000 12 275 0.0 0.0 0.00 0.00 0.00 77 1013.5
20260509061602 12 275 0.0 0.0 0.00 0.00 0.00 77 1013.4
20260509061211 12 275 0.0 0.0 0.00 0.00 0.00 77 1013.4
20260509061007 12 275 0.0 0.0 0.00 0.00 0.00 77 1013.4
20260509060804 12 275 0.0 0.0 0.00 0.00 0.00 77 1013.4
20260509060558 12 275 0.0 0.0 0.00 0.00 0.00 77 1013.3
20260509060345 12 275 0.0 0.0 0.00 0.00 0.00 77 1013.4
20260509060144 12 275 0.0 0.0 0.00 0.00 0.00 76 1013.4
20260509055933 12 275 0.0 0.0 0.00 0.00 0.00 76 1013.4
20260509055723 12 275 0.0 0.0 0.00 0.00 0.00 76 1013.4
20260509055519 12 275 0.0 0.0 0.00 0.00 0.00 76 1013.4
20260509055125 12 275 0.0 0.0 0.00 0.00 0.00 76 1013.4
20260509054921 12 275 0.0 0.0 0.00 0.00 0.00 76 1013.4
20260509054711 13 275 0.0 0.0 0.00 0.00 0.00 76 1013.3
20260509054508 13 275 0.0 0.0 0.00 0.00 0.00 75 1013.3
20260509054255 13 275 0.0 0.0 0.00 0.00 0.00 75 1013.3
20260509054043 13 275 0.0 0.0 0.00 0.00 0.00 75 1013.3
20260509053647 13 275 0.0 0.0 0.00 0.00 0.00 75 1013.4
20260509053444 13 275 0.0 0.0 0.00 0.00 0.00 75 1013.4
20260509053237 13 275 0.0 0.0 0.00 0.00 0.00 75 1013.4
20260509053026 13 275 0.0 0.0 0.00 0.00 0.00 75 1013.4
20260509052824 13 275 0.0 0.0 0.00 0.00 0.00 74 1013.4
20260509052432 13 275 0.0 0.0 0.00 0.00 0.00 74 1013.4
20260509052225 13 275 0.0 0.0 0.00 0.00 0.00 74 1013.4
20260509051837 13 275 0.0 0.0 0.00 0.00 0.00 74 1013.3
20260509051446 13 275 0.0 0.0 0.00 0.00 0.00 74 1013.3
20260509051237 13 275 0.0 0.0 0.00 0.00 0.00 73 1013.3
20260509051025 13 275 0.0 0.0 0.00 0.00 0.00 73 1013.3
20260509050307 13 275 0.0 0.0 0.00 0.00 0.00 73 1013.2
20260509050054 13 275 0.0 0.0 0.00 0.00 0.00 72 1013.2
20260509045841 13 275 0.0 0.0 0.00 0.00 0.00 72 1013.2
20260509045452 14 275 0.0 0.0 0.00 0.00 0.00 72 1013.1
20260509044919 14 275 0.0 0.0 0.00 0.00 0.00 71 1013.0
20260509044713 14 275 0.0 0.0 0.00 0.00 0.00 71 1013.0
20260509044506 14 275 0.0 0.0 0.00 0.00 0.00 71 1013.0
20260509044255 14 275 0.0 0.0 0.00 0.00 0.00 71 1013.0
20260509044051 14 275 0.0 0.0 0.00 0.00 0.00 70 1013.0
20260509043843 14 275 0.0 0.0 0.00 0.00 0.00 70 1013.0
20260509043635 14 275 0.0 0.0 0.00 0.00 0.00 70 1013.0
20260509043422 15 275 0.0 0.0 0.00 0.00 0.00 70 1013.0
20260509043032 15 275 0.0 0.0 0.00 0.00 0.00 69 1012.9
20260509042829 15 275 0.0 0.0 0.00 0.00 0.00 69 1012.9
20260509042626 15 275 0.0 0.0 0.00 0.00 0.00 69 1012.9
20260509042238 15 275 0.0 0.0 0.00 0.00 0.00 69 1012.9
20260509042026 15 275 0.0 0.0 0.00 0.00 0.00 69 1012.8
20260509041824 15 275 0.0 0.0 0.00 0.00 0.00 68 1012.8
20260509041618 15 275 0.0 0.0 0.00 0.00 0.00 68 1012.8
20260509041416 15 275 0.0 0.0 0.00 0.00 0.00 67 1012.8
20260509041207 15 275 0.0 0.0 0.00 0.00 0.00 67 1012.8
20260509040959 15 275 0.0 0.0 0.00 0.00 0.00 66 1012.8
20260509040755 15 275 0.0 0.0 0.00 0.00 0.00 66 1012.8
20260509040547 16 275 0.0 0.0 0.00 0.00 0.00 66 1012.8
20260509040343 16 275 0.0 0.0 0.00 0.00 0.00 66 1012.8
20260509040139 16 275 0.0 0.0 0.00 0.00 0.00 65 1012.8
20260509035934 16 275 0.0 0.0 0.00 0.00 0.00 65 1012.8
20260509035543 16 275 0.0 0.0 0.00 0.00 0.00 64 1012.7
20260509035341 16 275 0.0 0.0 0.00 0.00 0.00 64 1012.7
20260509035137 16 275 0.0 0.0 0.00 0.00 0.00 64 1012.7
20260509034744 16 275 0.0 0.0 0.00 0.00 0.00 64 1012.7
20260509034540 16 275 0.0 0.0 0.00 0.00 0.00 63 1012.7
20260509034332 16 275 0.0 0.0 0.00 0.00 0.00 63 1012.6
20260509034123 17 275 0.0 0.0 0.00 0.00 0.00 62 1012.6
20260509033911 17 275 0.0 0.0 0.00 0.00 0.00 63 1012.5
20260509033702 17 275 0.0 0.0 0.00 0.00 0.00 62 1012.6
20260509032939 17 275 0.0 0.0 0.00 0.00 0.00 62 1012.5
20260509032543 17 275 0.0 0.0 0.00 0.00 0.00 61 1012.6
20260509032338 17 275 0.0 0.0 0.00 0.00 0.00 61 1012.6
20260509032125 18 275 0.0 0.0 0.00 0.00 0.00 61 1012.5
20260509031919 18 275 0.0 0.0 0.00 0.00 0.00 61 1012.6
20260509031714 18 275 0.0 0.0 0.00 0.00 0.00 60 1012.6
20260509031503 18 275 0.0 0.0 0.00 0.00 0.00 60 1012.6
20260509031301 18 275 0.0 0.0 0.00 0.00 0.00 60 1012.6
20260509031054 18 275 0.0 0.0 0.00 0.00 0.00 60 1012.5
20260509030842 18 275 0.0 0.0 0.00 0.00 0.00 59 1012.4
20260509030636 18 275 0.0 0.0 0.00 0.00 0.00 59 1012.4
20260509030428 18 275 0.0 0.0 0.00 0.00 0.00 59 1012.4
20260509025848 19 275 0.0 0.0 0.00 0.00 0.00 58 1012.3
20260509025639 19 275 0.0 0.0 0.00 0.00 0.00 58 1012.4
20260509025427 19 275 0.0 0.0 0.00 0.00 0.00 58 1012.4
20260509025217 19 275 0.0 0.0 0.00 0.00 0.00 58 1012.3
20260509025014 20 275 0.0 0.0 0.00 0.00 0.00 58 1012.4
20260509024811 20 275 0.0 0.0 0.00 0.00 0.00 57 1012.3
20260509024559 20 275 0.0 0.0 0.00 0.00 0.00 57 1012.3
20260509024354 20 275 0.0 0.0 0.00 0.00 0.00 56 1012.2
20260509024141 20 275 0.0 0.0 0.00 0.00 0.00 56 1012.3
20260509023929 20 275 0.0 0.0 0.00 0.00 0.00 56 1012.3
20260509023723 20 275 0.0 0.0 0.00 0.00 0.00 56 1012.2
20260509023515 20 275 0.0 0.0 0.00 0.00 0.00 55 1012.3
20260509023313 20 275 0.0 0.0 0.00 0.00 0.00 55 1012.2
20260509023103 21 275 0.0 0.0 0.00 0.00 0.00 55 1012.2
20260509022852 21 275 0.0 0.0 0.00 0.00 0.00 55 1012.1
20260509022504 21 275 0.0 0.0 0.00 0.00 0.00 53 1012.1
20260509022113 21 275 0.0 0.0 0.00 0.00 0.00 52 1012.1
20260509021719 22 275 0.0 0.0 0.00 0.00 0.00 51 1012.1
20260509021511 22 275 0.0 0.0 0.00 0.00 0.00 52 1012.2
20260509021301 22 275 0.0 0.0 0.00 0.00 0.00 51 1012.1
20260509021051 22 275 0.0 0.0 0.00 0.00 0.00 51 1012.1
20260509020847 22 275 0.0 0.0 0.00 0.00 0.00 50 1012.1
20260509020643 22 275 0.0 1.6 0.00 0.00 0.00 50 1012.1
20260509020433 22 275 0.0 0.0 0.00 0.00 0.00 49 1012.1
20260509020044 23 275 0.0 0.0 0.00 0.00 0.00 48 1012.1
20260509015836 23 275 0.0 0.0 0.00 0.00 0.00 47 1012.1
20260509015629 23 275 0.0 0.0 0.00 0.00 0.00 47 1012.0
20260509015420 23 275 0.0 0.0 0.00 0.00 0.00 45 1012.0
20260509015216 23 275 0.0 0.0 0.00 0.00 0.00 45 1012.1
20260509014819 23 274 0.0 3.2 0.00 0.00 0.00 42 1012.1
20260509014613 23 274 0.0 3.2 0.00 0.00 0.00 44 1012.1
20260509014220 23 274 0.0 0.0 0.00 0.00 0.00 45 1012.2
20260509014015 24 274 0.0 0.0 0.00 0.00 0.00 42 1012.2
20260509013809 24 274 0.0 6.4 0.00 0.00 0.00 40 1012.1
20260509013557 24 274 0.0 6.4 0.00 0.00 0.00 40 1012.2
20260509013344 24 274 0.0 4.8 0.00 0.00 0.00 40 1012.2
20260509013131 24 274 0.0 4.8 0.00 0.00 0.00 40 1012.1
20260509012924 24 273 0.0 4.8 0.00 0.00 0.00 41 1012.2
20260509012534 25 304 0.0 0.0 0.00 0.00 0.00 43 1012.1
20260509012329 25 304 0.0 9.7 0.00 0.00 0.00 41 1012.1
20260509012120 25 304 0.0 9.7 0.00 0.00 0.00 39 1012.1
20260509011725 25 207 0.0 6.4 0.00 0.00 0.00 39 1012.1
20260509011332 25 291 0.0 6.4 0.00 0.00 0.00 39 1012.1
20260509010938 25 200 0.0 6.4 0.00 0.00 0.00 39 1012.1
20260509010730 25 263 0.0 0.0 0.00 0.00 0.00 40 1012.1
20260509010526 25 263 1.6 8.0 0.00 0.00 0.00 39 1012.1
20260509010319 26 263 1.6 8.0 0.00 0.00 0.00 40 1012.1
20260509005922 26 197 0.0 6.4 0.00 0.00 0.00 40 1012.1
20260509005719 26 220 0.0 6.4 0.00 0.00 0.00 40 1012.1
20260509005329 25 219 0.0 6.4 0.00 0.00 0.00 41 1012.2
20260509005118 25 218 0.0 6.4 0.00 0.00 0.00 41 1012.2
20260509004913 25 217 1.6 8.0 0.00 0.00 0.00 40 1012.3
20260509004525 25 213 1.6 8.0 0.00 0.00 0.00 40 1012.4
20260509004322 25 169 1.6 8.0 0.00 0.00 0.00 40 1012.3
20260509004114 25 261 1.6 8.0 0.00 0.00 0.00 40 1012.4
20260509003909 25 228 1.6 8.0 0.00 0.00 0.00 41 1012.3
20260509003702 25 179 1.6 8.0 0.00 0.00 0.00 40 1012.3
20260509003452 25 207 0.0 8.0 0.00 0.00 0.00 39 1012.3
20260509003240 26 231 0.0 8.0 0.00 0.00 0.00 39 1012.4
20260509003038 26 253 0.0 8.0 0.00 0.00 0.00 40 1012.3
20260509002829 26 255 1.6 9.7 0.00 0.00 0.00 41 1012.3
20260509002619 26 253 1.6 9.7 0.00 0.00 0.00 41 1012.3
20260509002413 26 255 1.6 9.7 0.00 0.00 0.00 40 1012.3
20260509002026 26 258 1.6 9.7 0.00 0.00 0.00 41 1012.4
20260509001640 26 221 1.6 9.7 0.00 0.00 0.00 41 1012.3
20260509001427 26 277 1.6 9.7 0.00 0.00 0.00 41 1012.4
20260509001218 26 298 1.6 9.7 0.00 0.00 0.00 39 1012.4
20260509001011 26 289 1.6 9.7 0.00 0.00 0.00 41 1012.4
20260509000800 26 314 0.0 9.7 0.00 0.00 0.00 40 1012.4
20260509000556 26 242 0.0 9.7 0.00 0.00 0.00 41 1012.4
20260509000355 26 240 1.6 9.7 0.00 0.00 0.00 41 1012.5
20260509000143 26 284 1.6 9.7 0.00 0.00 0.00 40 1012.4
20260508235941 26 280 1.6 9.7 0.00 0.00 0.00 41 1012.4
20260508235729 26 305 1.6 9.7 0.00 0.00 0.00 41 1012.4
20260508235517 26 202 1.6 9.7 0.00 0.00 0.00 40 1012.4
20260508235307 26 182 1.6 9.7 0.00 0.00 0.00 41 1012.4
20260508235104 26 150 1.6 9.7 0.00 0.00 0.00 42 1012.4
20260508234859 26 151 1.6 9.7 0.00 0.00 0.00 40 1012.5
20260508234647 26 245 1.6 11.3 0.00 0.00 0.00 41 1012.5
20260508234438 26 244 1.6 11.3 0.00 0.00 0.00 41 1012.6
20260508234230 26 232 0.0 11.3 0.00 0.00 0.00 43 1012.5
20260508234020 26 325 1.6 11.3 0.00 0.00 0.00 41 1012.6
20260508233632 26 238 1.6 11.3 0.00 0.00 0.00 41 1012.7
20260508233238 26 166 1.6 11.3 0.00 0.00 0.00 42 1012.6
20260508233030 26 288 0.0 11.3 0.00 0.00 0.00 41 1012.7
20260508232828 26 350 0.0 11.3 0.00 0.00 0.00 41 1012.6
20260508232621 26 243 0.0 9.7 0.00 0.00 0.00 44 1012.7
20260508232414 26 243 1.6 9.7 0.00 0.00 0.00 42 1012.6
20260508232210 26 209 1.6 9.7 0.00 0.00 0.00 45 1012.6
20260508232005 26 209 1.6 9.7 0.00 0.00 0.00 44 1012.7
20260508231759 26 209 1.6 9.7 0.00 0.00 0.00 44 1012.7
20260508231552 26 156 1.6 9.7 0.00 0.00 0.00 42 1012.7
20260508231349 26 243 0.0 8.0 0.00 0.00 0.00 44 1012.7
20260508231142 26 243 0.0 9.7 0.00 0.00 0.00 41 1012.7
20260508230934 26 209 0.0 9.7 0.00 0.00 0.00 44 1012.8
20260508230730 26 209 0.0 9.7 0.00 0.00 0.00 45 1012.8
20260508230337 26 184 1.6 9.7 0.00 0.00 0.00 43 1012.9
20260508230133 26 272 1.6 9.7 0.00 0.00 0.00 42 1012.8
20260508225746 26 155 1.6 9.7 0.00 0.00 0.00 42 1012.9
20260508225540 26 266 0.0 9.7 0.00 0.00 0.00 43 1012.9
20260508225337 26 275 0.0 9.7 0.00 0.00 0.00 43 1013.0
20260508224949 26 199 0.0 8.0 0.00 0.00 0.00 44 1013.0
20260508224737 26 286 0.0 8.0 0.00 0.00 0.00 45 1013.1
20260508224534 26 300 0.0 8.0 0.00 0.00 0.00 44 1013.0
20260508224324 26 299 1.6 8.0 0.00 0.00 0.00 42 1013.1
20260508224121 26 237 1.6 8.0 0.00 0.00 0.00 41 1013.2
20260508223913 26 206 1.6 9.7 0.00 0.00 0.00 43 1013.2
20260508223520 26 279 1.6 9.7 0.00 0.00 0.00 44 1013.2
20260508223308 26 279 1.6 9.7 0.00 0.00 0.00 42 1013.3
20260508223103 26 286 0.0 9.7 0.00 0.00 0.00 41 1013.3
20260508222857 26 239 0.0 11.3 0.00 0.00 0.00 43 1013.2
20260508222650 26 205 0.0 11.3 0.00 0.00 0.00 44 1013.3
20260508222255 26 308 0.0 11.3 0.00 0.00 0.00 43 1013.3
20260508222053 26 280 0.0 11.3 0.00 0.00 0.00 43 1013.3
20260508221705 26 278 0.0 9.7 0.00 0.00 0.00 44 1013.3
20260508221452 26 209 1.6 9.7 0.00 0.00 0.00 43 1013.3
20260508221247 26 209 0.0 9.7 0.00 0.00 0.00 44 1013.4
20260508221037 26 296 0.0 9.7 0.00 0.00 0.00 45 1013.4
20260508220827 26 194 1.6 6.4 0.00 0.00 0.00 46 1013.4
20260508220617 26 192 1.6 6.4 0.00 0.00 0.00 44 1013.4
20260508220413 26 200 1.6 4.8 0.00 0.00 0.00 45 1013.4
20260508220200 26 189 1.6 11.3 0.00 0.00 0.00 43 1013.5
20260508215805 26 228 1.6 11.3 0.00 0.00 0.00 44 1013.4
20260508215602 26 329 0.0 11.3 0.00 0.00 0.00 45 1013.5
20260508215400 26 281 1.6 8.0 0.00 0.00 0.00 43 1013.5
20260508215154 26 281 0.0 8.0 0.00 0.00 0.00 45 1013.6
20260508214943 26 281 0.0 11.3 0.00 0.00 0.00 45 1013.7
20260508214731 26 244 1.6 11.3 0.00 0.00 0.00 44 1013.7
20260508214337 26 248 3.2 11.3 0.00 0.00 0.00 44 1013.7
20260508214132 26 250 3.2 11.3 0.00 0.00 0.00 47 1013.7
20260508213550 26 248 1.6 11.3 0.00 0.00 0.00 45 1013.7
20260508213343 26 284 0.0 8.0 0.00 0.00 0.00 46 1013.7
20260508213141 25 210 0.0 8.0 0.00 0.00 0.00 46 1013.7
20260508212930 25 248 0.0 8.0 0.00 0.00 0.00 48 1013.7
20260508212722 25 248 1.6 8.0 0.00 0.00 0.00 47 1013.8
20260508212519 25 248 1.6 8.0 0.00 0.00 0.00 47 1013.7
20260508212124 25 236 0.0 14.5 0.00 0.00 0.00 48 1013.8
20260508211916 25 282 1.6 14.5 0.00 0.00 0.00 47 1013.8
20260508211705 25 311 1.6 14.5 0.00 0.00 0.00 47 1013.9
20260508211128 25 331 3.2 14.5 0.00 0.00 0.00 48 1013.9
20260508210916 25 267 3.2 14.5 0.00 0.00 0.00 49 1013.8
20260508210706 25 296 3.2 14.5 0.00 0.00 0.00 48 1013.9
20260508210459 26 290 1.6 14.5 0.00 0.00 0.00 50 1013.8
20260508210251 26 315 1.6 14.5 0.00 0.00 0.00 48 1013.9
20260508210049 26 284 1.6 9.7 0.00 0.00 0.00 48 1013.9
20260508205837 26 320 1.6 9.7 0.00 0.00 0.00 48 1013.9
20260508205631 26 242 1.6 9.7 0.00 0.00 0.00 49 1013.9
20260508205429 26 279 1.6 9.7 0.00 0.00 0.00 47 1013.8
20260508205219 26 290 1.6 9.7 0.00 0.00 0.00 47 1013.9
20260508205014 26 30 1.6 9.7 0.00 0.00 0.00 48 1013.9
20260508204812 26 229 1.6 9.7 0.00 0.00 0.00 48 1013.8
20260508204609 26 232 0.0 9.7 0.00 0.00 0.00 50 1013.8
20260508204406 26 273 0.0 9.7 0.00 0.00 0.00 48 1013.9
20260508204159 26 253 0.0 8.0 0.00 0.00 0.00 47 1013.9
20260508203810 25 231 1.6 8.0 0.00 0.00 0.00 48 1014.0
20260508203606 25 94 1.6 0.0 0.00 0.00 0.00 49 1014.0
20260508203404 25 94 3.2 11.3 0.00 0.00 0.00 49 1013.9
20260508203200 25 212 3.2 8.0 0.00 0.00 0.00 47 1014.1
20260508202957 25 214 3.2 8.0 0.00 0.00 0.00 46 1014.1
20260508202750 25 281 1.6 8.0 0.00 0.00 0.00 46 1014.1
20260508202354 25 196 1.6 8.0 0.00 0.00 0.00 47 1014.1
20260508202145 25 190 1.6 4.8 0.00 0.00 0.00 47 1014.0
20260508201748 25 184 1.6 11.3 0.00 0.00 0.00 48 1014.1
20260508201400 25 153 1.6 11.3 0.00 0.00 0.00 47 1014.1
20260508201148 26 279 1.6 11.3 0.00 0.00 0.00 46 1014.2
20260508200946 25 230 1.6 9.7 0.00 0.00 0.00 46 1014.2
20260508200742 25 255 0.0 11.3 0.00 0.00 0.00 47 1014.2
20260508200531 25 251 1.6 11.3 0.00 0.00 0.00 47 1014.2
20260508200322 25 270 1.6 11.3 0.00 0.00 0.00 47 1014.1
20260508200116 25 258 1.6 11.3 0.00 0.00 0.00 47 1014.2
20260508195913 25 270 1.6 11.3 0.00 0.00 0.00 47 1014.2
20260508195703 25 270 1.6 9.7 0.00 0.00 0.00 46 1014.2
20260508195456 25 280 1.6 9.7 0.00 0.00 0.00 48 1014.3
20260508195254 26 303 1.6 9.7 0.00 0.00 0.00 45 1014.4
20260508195045 25 252 1.6 9.7 0.00 0.00 0.00 48 1014.2
20260508194843 25 292 0.0 9.7 0.00 0.00 0.00 48 1014.3
20260508194639 25 282 0.0 6.4 0.00 0.00 0.00 48 1014.3
20260508194433 25 281 0.0 6.4 0.00 0.00 0.00 48 1014.4
20260508194231 25 182 1.6 0.0 0.00 0.00 0.00 51 1014.4
20260508194023 25 182 1.6 0.0 0.00 0.00 0.00 49 1014.4
20260508193820 25 182 1.6 9.7 0.00 0.00 0.00 48 1014.5
20260508193609 25 201 1.6 9.7 0.00 0.00 0.00 50 1014.4
20260508193406 25 305 0.0 9.7 0.00 0.00 0.00 47 1014.5
20260508193159 25 312 0.0 0.0 0.00 0.00 0.00 48 1014.5
20260508192804 25 318 0.0 9.7 0.00 0.00 0.00 47 1014.6
20260508192418 25 188 0.0 8.0 0.00 0.00 0.00 45 1014.6
20260508192216 25 188 1.6 8.0 0.00 0.00 0.00 43 1014.6
20260508192004 25 264 1.6 4.8 0.00 0.00 0.00 45 1014.5
20260508191753 25 262 1.6 0.0 0.00 0.00 0.00 45 1014.6
20260508191551 25 262 1.6 8.0 0.00 0.00 0.00 43 1014.6
20260508191346 25 202 0.0 8.0 0.00 0.00 0.00 43 1014.7
20260508191137 25 227 0.0 4.8 0.00 0.00 0.00 44 1014.7
20260508190926 25 289 1.6 4.8 0.00 0.00 0.00 45 1014.7
20260508190722 24 223 1.6 0.0 0.00 0.00 0.00 48 1014.7
20260508190516 24 223 1.6 11.3 0.00 0.00 0.00 49 1014.7
20260508190309 24 223 1.6 11.3 0.00 0.00 0.00 45 1014.7
20260508185707 23 163 0.0 0.0 0.00 0.00 0.00 44 1014.7
20260508185501 23 163 1.6 8.0 0.00 0.00 0.00 43 1014.8
20260508185258 23 161 0.0 8.0 0.00 0.00 0.00 45 1014.9
20260508185052 24 161 0.0 8.0 0.00 0.00 0.00 45 1014.9
20260508184840 24 178 0.0 4.8 0.00 0.00 0.00 45 1014.9
20260508184630 24 174 0.0 4.8 0.00 0.00 0.00 43 1015.0
20260508184235 24 290 1.6 8.0 0.00 0.00 0.00 39 1015.0
20260508184026 24 290 1.6 8.0 0.00 0.00 0.00 39 1015.0
20260508183638 23 311 1.6 8.0 0.00 0.00 0.00 43 1015.0
20260508183240 23 232 0.0 6.4 0.00 0.00 0.00 42 1015.0
20260508183027 23 232 0.0 6.4 0.00 0.00 0.00 44 1015.1
20260508182822 23 299 0.0 6.4 0.00 0.00 0.00 42 1015.1
20260508182613 23 296 0.0 4.8 0.00 0.00 0.00 46 1015.2
20260508182225 22 265 0.0 4.8 0.00 0.00 0.00 40 1015.1
20260508182022 22 211 0.0 1.6 0.00 0.00 0.00 40 1015.2
20260508181818 22 239 0.0 0.0 0.00 0.00 0.00 47 1015.2
20260508181426 22 238 0.0 8.0 0.00 0.00 0.00 43 1015.3
20260508181220 22 244 0.0 8.0 0.00 0.00 0.00 49 1015.2
20260508181009 22 244 0.0 8.0 0.00 0.00 0.00 50 1015.2
20260508180800 22 244 1.6 6.4 0.00 0.00 0.00 51 1015.2
20260508180555 22 244 1.6 6.4 0.00 0.00 0.00 50 1015.3
20260508180346 22 184 1.6 6.4 0.00 0.00 0.00 54 1015.2
20260508180136 22 184 1.6 6.4 0.00 0.00 0.00 54 1015.3
20260508175745 22 221 1.6 4.8 0.00 0.00 0.00 58 1015.3
20260508175543 21 248 1.6 8.0 0.00 0.00 0.00 57 1015.2
20260508175330 21 240 1.6 8.0 0.00 0.00 0.00 59 1015.3
20260508175125 21 278 0.0 6.4 0.00 0.00 0.00 60 1015.3
20260508174736 21 290 0.0 6.4 0.00 0.00 0.00 59 1015.2
20260508174531 21 290 0.0 6.4 0.00 0.00 0.00 62 1015.3
20260508174323 21 258 0.0 4.8 0.00 0.00 0.00 63 1015.2
20260508174115 20 257 0.0 4.8 0.00 0.00 0.00 65 1015.2
20260508173724 20 274 1.6 3.2 0.00 0.00 0.00 66 1015.2
20260508173516 20 296 1.6 1.6 0.00 0.00 0.00 65 1015.2
20260508173312 20 296 1.6 8.0 0.00 0.00 0.00 65 1015.3
20260508173103 20 329 0.0 8.0 0.00 0.00 0.00 65 1015.3
20260508172528 20 229 0.0 1.6 0.00 0.00 0.00 70 1015.2
20260508172322 20 229 0.0 9.7 0.00 0.00 0.00 70 1015.2
20260508172115 20 229 0.0 9.7 0.00 0.00 0.00 70 1015.2
20260508171913 19 229 0.0 9.7 0.00 0.00 0.00 71 1015.2